sat.trackr.live / text

‹ back to catalog

STARLINK-2388

NORAD 47807 · 2021-018W

PAYLOAD ACTIVE UNKNOWN

§ Identity

Operator
Country
US
Launch date
2021-03-11
Launch site
AFETR
Launch vehicle
Mass (kg)
RCS (m²)

Purposes: comms

External: N2YO · Heavens-Above · Gunter

§ Orbital elements

Epoch: 2026-05-25T05:03:25.030368Z

Period
94.01 min
Inclination
53.1568°
Eccentricity
0.0001319
Mean motion
15.31709703 rev/d
Perigee alt
469.8 km
Apogee alt
471.6 km
Semi-major
6,848.8 km
B*
2.1477e-5
RAAN
220.7937°
Arg perigee
94.8288°
Mean anomaly
265.2864°
Rev number
28,880

§ Raw data

STARLINK-23881 47807U 21018W   26145.21070637  .00000301  00000+0  21477-4 0  99902 47807  53.1568 220.7937 0001319  94.8288 265.2864 15.31709703288804

JSON: /api/v1/satellites/47807 · /tle

For live sub-satellite position, see the globe view (requires WebGL).

§ Visibility from observer

Set your observer location to see the next 7 days of passes ≥ 10°. The values pass through the URL so the page stays shareable.

No JS? Fill the form by hand. The geolocation button needs JavaScript.